Wind_Speed
44 46 47 48 48 49 49 50 50 50 50 50 50 50 50 50 50 50 50 50 50 50 50 50 49 49 49 49 50 49 49 49 48 48 48 48 49 49 48 49 49 49 50
44 46 48 49 50 50 50 51 50 51 52 52 51 51 52 51 51 51 51 50 51 51 51 51 50 50 50 50 51 51 50 50 49 49 49 50 50 50 50 50 51 51 51
44 46 46 48 49 49 50 50 50 51 53 53 53 53 53 53 52 52 52 52 53 52 52 52 52 52 52 51 51 52 52 52 51 51 51 51 51 51 52 52 52 53 54
44 46 46 47 49 50 50 50 50 51 52 53 54 54 54 53 53 53 54 54 55 54 54 54 54 53 53 52 52 53 53 53 52 52 53 53 52 53 53 53 54 54 55
45 46 45 46 48 50 51 52 51 51 52 52 53 55 54 55 54 53 54 54 55 56 55 55 54 53 54 53 53 54 54 54 53 53 53 53 53 54 54 54 55 55 55
45 46 45 46 47 49 50 51 52 52 53 53 53 54 54 55 55 55 55 54 54 54 54 55 55 55 55 55 55 54 54 54 54 54 54 54 54 54 54 55 55 55 55
46 46 46 46 47 48 48 49 50 51 52 53 53 53 54 54 55 54 55 54 54 53 53 54 54 55 55 56 55 55 55 55 55 54 54 54 54 54 55 55 55 55 55
46 47 46 46 47 48 49 49 50 50 51 51 51 52 53 53 53 53 53 53 53 53 52 52 52 54 54 55 55 55 55 55 55 55 55 55 54 55 55 55 55 55 55
44 45 46 47 47 48 48 48 49 49 50 51 51 51 51 52 52 53 53 52 52 52 50 50 50 51 52 53 54 53 53 53 53 53 53 54 54 55 55 55 55 55 55
44 44 45 46 47 48 48 49 49 50 50 50 51 51 50 50 50 51 52 52 51 50 50 50 50 50 51 52 52 51 51 51 51 51 51 52 53 53 54 54 54 54 55
42 43 43 44 45 46 47 48 48 49 50 50 50 51 51 51 50 49 50 50 50 50 50 50 50 50 51 51 51 51 51 51 51 51 51 51 51 52 53 54 54 54 54
41 42 42 43 44 45 45 46 46 47 48 49 50 50 51 51 50 50 49 49 50 50 49 48 48 49 49 49 50 50 50 51 51 51 51 51 51 52 52 53 53 54 54
40 40 41 41 41 42 43 44 45 45 46 48 48 49 49 50 49 49 50 50 49 49 49 48 48 49 49 48 48 49 49 50 50 50 50 51 51 51 51 52 52 52 52
40 40 40 40 40 40 41 42 42 43 44 46 47 48 48 49 49 50 50 50 51 51 50 50 49 49 49 49 50 50 50 49 50 50 50 51 51 51 51 51 51 51 51
40 40 40 41 41 41 41 41 41 41 42 43 45 46 46 47 47 48 48 49 49 49 49 49 48 48 48 48 48 48 48 48 49 50 50 51 51 51 51 51 51 51 51
40 41 40 40 40 40 41 42 42 41 41 41 43 44 45 45 46 46 47 46 47 48 48 47 47 47 47 47 47 47 48 48 49 50 50 50 51 50 51 51 52 52 51
41 41 41 41 41 41 41 42 42 41 41 42 42 44 45 45 46 46 46 46 46 47 48 47 47 47 47 47 47 48 48 49 49 50 50 50 50 51 51 51 51 51 51
42 42 42 42 42 41 42 42 42 42 42 43 43 43 44 45 45 46 46 47 47 47 47 48 48 48 48 48 48 49 50 50 51 51 51 51 51 51 51 51 51 51 50
41 41 41 41 41 41 41 41 41 41 41 42 42 43 44 44 44 45 46 47 47 47 47 47 48 48 48 49 50 50 51 51 51 51 51 51 51 51 51 50 50 50 50
39 39 39 38 39 40 40 40 39 39 40 40 41 41 42 43 44 44 45 45 46 46 46 47 48 48 48 49 50 51 50 51 51 51 51 51 50 51 50 49 49 48 47
38 38 38 38 38 39 39 39 39 39 39 39 39 40 41 42 43 43 43 43 44 44 45 46 46 47 47 48 49 49 49 49 50 50 50 50 49 49 48 48 47 46 46
37 37 38 38 38 38 38 39 39 39 39 39 39 40 40 41 42 42 43 43 43 43 44 44 45 45 46 46 46 46 46 46 47 47 48 47 47 47 46 46 46 45 45
37 37 37 37 37 38 38 38 38 38 38 38 39 40 41 41 41 41 42 43 43 42 42 43 43 44 43 43 43 43 43 43 44 44 44 44 44 44 44 44 44 44 44
36 36 36 37 37 36 37 37 37 36 37 37 38 39 40 40 41 41 41 42 42 42 42 41 41 41 41 41 40 40 40 40 40 40 41 41 42 42 42 42 42 42 42
35 35 35 35 35 35 35 35 35 36 36 37 37 38 39 39 40 40 41 41 41 41 41 40 39 38 38 38 38 38 38 38 38 39 39 39 40 40 40 40 41 41 41
33 33 33 33 33 33 33 34 34 35 35 36 37 38 38 38 38 39 39 39 39 39 39 38 38 37 37 36 36 37 37 37 37 38 38 38 38 38 39 39 39 39 39
Wind_Direction
255 253 252 251 253 253 254 254 253 254 253 253 254 255 256 256 256 256 256 256 257 258 258 258 258 258 258 259 260 261 261 261 261 261 261 261 261 261 262 264 265 265 266
256 253 253 253 254 254 254 255 255 255 255 254 254 254 255 257 256 256 256 256 257 257 257 257 257 257 258 259 260 261 261 261 261 261 261 261 261 262 263 264 265 266 267
256 255 254 255 255 254 254 255 255 256 256 255 255 255 256 256 256 256 256 256 256 257 257 257 257 258 258 260 261 261 262 262 262 262 262 262 262 263 264 265 266 267 268
258 256 256 256 256 255 255 256 256 256 256 256 257 257 257 256 256 256 256 256 257 257 257 257 257 258 259 260 261 262 263 263 262 262 263 263 263 264 265 266 267 268 269
260 259 258 259 258 257 257 257 256 257 257 257 257 257 257 256 256 256 256 257 257 258 257 257 257 257 259 260 261 261 262 262 263 263 263 264 264 265 266 268 268 268 269
260 259 260 260 260 259 259 258 257 257 258 258 258 258 258 258 257 258 257 257 258 257 256 257 257 257 258 260 261 261 262 263 263 264 265 265 265 266 267 268 269 269 270
259 260 260 261 262 261 260 259 258 259 259 259 258 258 258 259 258 258 258 258 257 257 257 257 257 257 259 259 260 261 262 263 264 265 265 266 266 267 268 268 269 270 270
260 260 261 262 262 261 260 260 260 260 260 259 258 258 258 259 258 258 258 258 257 257 257 257 257 258 259 259 259 260 262 263 264 264 265 265 266 267 268 269 269 269 269
261 261 262 262 261 261 260 260 261 261 260 260 259 260 259 259 259 259 258 257 256 256 257 257 257 258 259 259 260 261 262 263 264 265 265 265 267 268 268 269 269 270 270
263 262 263 262 261 260 260 261 261 260 260 261 260 259 259 259 258 258 259 258 256 255 256 258 259 260 260 261 262 262 262 263 264 265 265 266 267 268 268 269 269 270 270
265 264 264 263 262 261 261 261 261 262 261 260 260 258 258 258 258 258 258 258 256 255 257 259 260 261 262 263 263 263 263 264 265 266 266 266 267 268 269 269 270 270 270
267 266 265 264 264 263 262 261 261 262 262 260 260 259 258 259 258 258 259 257 255 255 257 258 259 259 261 262 263 263 264 265 266 266 267 267 267 269 270 270 270 271 271
268 266 265 264 264 264 262 261 262 262 261 260 260 259 258 258 258 259 258 257 256 257 257 257 258 260 261 261 262 263 263 264 266 266 267 268 268 269 270 270 271 271 271
269 266 264 264 264 264 262 262 262 262 261 261 260 259 259 257 257 258 258 258 258 258 258 259 260 261 261 261 261 263 263 264 265 266 267 268 269 269 269 270 270 271 272
269 267 265 264 263 263 263 263 264 264 263 262 260 260 259 258 257 258 258 258 258 258 259 260 260 260 260 262 262 263 263 263 265 266 267 267 268 268 268 269 270 271 272
269 268 266 265 263 264 264 264 264 264 263 263 262 261 260 257 257 257 258 258 257 258 258 259 260 260 261 261 262 262 263 264 265 266 266 266 266 266 267 268 269 270 271
268 267 266 264 264 263 264 265 264 264 264 264 264 263 260 258 257 257 257 257 258 259 259 259 260 260 261 262 262 263 263 264 265 265 265 266 266 266 267 268 269 270 270
269 268 268 266 265 264 265 265 264 264 264 264 264 264 262 259 258 258 257 257 258 259 260 260 261 261 262 263 263 263 263 264 264 265 265 265 266 267 268 269 269 270 270
271 269 269 268 266 265 266 265 265 264 264 264 264 264 262 259 259 258 258 259 259 260 261 261 261 262 263 263 263 263 263 264 264 264 265 265 266 267 268 268 269 269 268
270 270 270 269 268 266 267 267 266 264 264 263 263 262 261 259 259 259 259 260 260 260 261 262 263 264 264 264 264 264 263 263 264 264 264 265 266 267 267 267 267 267 267
270 269 270 270 270 269 268 268 266 264 264 262 261 261 262 261 261 261 260 260 260 260 261 262 264 265 265 266 265 264 263 264 263 262 263 264 265 265 265 266 266 266 266
270 270 271 271 271 270 269 267 266 264 263 262 262 262 262 263 262 262 261 261 261 262 263 264 265 266 266 266 266 265 264 263 262 262 262 263 263 263 264 265 265 266 266
270 271 271 271 270 269 268 267 266 264 264 263 262 262 261 261 261 262 262 263 263 263 264 265 266 267 267 266 266 265 264 263 263 262 262 262 262 263 263 265 265 265 266
271 271 271 271 270 268 267 267 266 264 263 262 262 261 260 260 261 262 263 264 264 264 265 266 266 266 266 266 264 263 263 263 263 263 262 263 263 263 264 265 265 265 266
272 272 272 271 270 268 267 267 266 265 264 264 263 262 261 261 262 263 264 264 264 264 265 266 267 267 266 265 264 263 262 263 263 263 263 263 264 264 264 265 265 265 264
273 272 271 270 269 268 266 266 267 266 266 265 265 263 262 261 262 263 263 264 264 264 265 265 266 267 266 266 265 264 263 263 263 264 263 263 264 264 264 265 265 265 264
Height
5612 5614 5616 5618 5620 5622 5623 5625 5627 5628 5630 5632 5634 5636 5637 5639 5641 5643 5645 5647 5649 5651 5653 5655 5657 5659 5661 5663 5664 5665 5666 5667 5670 5672 5672 5673 5673 5674 5675 5675 5676 5676 5677
5600 5601 5603 5604 5606 5608 5610 5612 5613 5615 5616 5618 5620 5621 5623 5625 5627 5629 5631 5632 5635 5637 5639 5641 5644 5646 5648 5649 5650 5652 5652 5653 5655 5658 5659 5659 5660 5661 5661 5662 5662 5662 5663
5587 5588 5590 5591 5592 5594 5596 5598 5599 5601 5602 5603 5605 5607 5608 5611 5613 5615 5616 5618 5620 5623 5625 5628 5630 5632 5634 5635 5637 5638 5639 5640 5641 5643 5645 5646 5646 5647 5647 5648 5648 5648 5648
5574 5575 5576 5578 5579 5581 5582 5583 5585 5586 5588 5589 5590 5592 5593 5595 5597 5599 5601 5603 5605 5608 5610 5613 5615 5618 5620 5621 5622 5623 5624 5625 5627 5628 5630 5631 5632 5632 5633 5633 5634 5633 5633
5561 5562 5563 5564 5565 5567 5568 5569 5570 5572 5573 5574 5575 5577 5578 5580 5582 5584 5586 5588 5590 5592 5595 5597 5600 5603 5605 5606 5608 5609 5610 5611 5612 5613 5615 5616 5617 5617 5618 5618 5618 5618 5618
5548 5549 5550 5551 5552 5552 5553 5554 5555 5557 5558 5559 5560 5562 5563 5565 5567 5569 5571 5573 5574 5577 5579 5582 5585 5587 5589 5591 5592 5594 5595 5596 5597 5598 5600 5601 5601 5602 5602 5602 5602 5602 5603
5535 5536 5536 5537 5538 5538 5539 5540 5541 5542 5543 5544 5546 5547 5549 5550 5552 5553 5555 5557 5559 5561 5564 5567 5569 5571 5573 5575 5576 5578 5579 5581 5582 5584 5585 5586 5586 5586 5586 5587 5586 5586 5587
5521 5522 5523 5523 5524 5524 5525 5526 5527 5527 5528 5530 5531 5532 5533 5535 5536 5538 5540 5542 5544 5547 5549 5551 5554 5556 5557 5559 5561 5563 5564 5566 5567 5568 5569 5570 5570 5570 5570 5570 5570 5570 5570
5508 5508 5509 5509 5510 5510 5511 5512 5512 5513 5514 5515 5516 5517 5518 5520 5521 5523 5525 5527 5530 5532 5534 5536 5538 5541 5543 5544 5546 5548 5549 5550 5550 5551 5553 5553 5553 5554 5553 5553 5553 5553 5554
5494 5494 5495 5495 5495 5496 5497 5497 5498 5499 5500 5500 5501 5502 5503 5505 5506 5508 5510 5513 5515 5518 5520 5522 5524 5525 5527 5528 5530 5532 5534 5535 5535 5536 5537 5538 5538 5538 5537 5537 5537 5537 5537
5481 5481 5481 5481 5482 5482 5482 5483 5484 5484 5485 5486 5487 5488 5489 5491 5493 5494 5496 5498 5501 5503 5505 5507 5509 5510 5512 5513 5515 5517 5518 5519 5520 5521 5522 5523 5523 5523 5522 5522 5521 5521 5522
5468 5468 5468 5468 5468 5468 5468 5469 5469 5470 5471 5472 5473 5474 5475 5476 5478 5480 5482 5484 5486 5488 5491 5492 5494 5495 5497 5499 5500 5502 5503 5503 5505 5506 5507 5507 5508 5508 5507 5506 5506 5505 5505
5456 5455 5454 5454 5454 5454 5454 5455 5455 5456 5457 5458 5459 5460 5461 5463 5464 5466 5468 5470 5471 5474 5476 5478 5479 5481 5483 5484 5485 5486 5487 5488 5489 5490 5491 5492 5492 5492 5491 5491 5490 5490 5490
5443 5442 5442 5441 5441 5441 5441 5442 5442 5442 5443 5444 5445 5446 5448 5449 5451 5452 5454 5455 5457 5459 5461 5463 5465 5466 5467 5469 5470 5471 5472 5473 5474 5475 5476 5476 5476 5476 5476 5476 5476 5475 5475
5430 5430 5429 5428 5428 5428 5428 5429 5429 5429 5429 5430 5431 5432 5434 5436 5437 5438 5440 5442 5443 5445 5447 5449 5450 5452 5453 5454 5455 5456 5457 5458 5459 5460 5460 5460 5460 5460 5460 5460 5460 5460 5460
5418 5417 5416 5416 5416 5416 5416 5416 5416 5416 5416 5417 5418 5419 5420 5422 5422 5424 5426 5428 5429 5431 5432 5434 5436 5437 5438 5439 5440 5441 5442 5443 5443 5444 5444 5445 5445 5445 5445 5445 5445 5445 5445
5405 5404 5403 5403 5403 5403 5403 5403 5403 5403 5403 5404 5404 5405 5406 5408 5409 5410 5412 5413 5415 5416 5418 5420 5421 5422 5423 5424 5425 5426 5427 5428 5428 5428 5429 5429 5429 5430 5430 5430 5430 5429 5429
5392 5391 5390 5390 5390 5390 5390 5390 5390 5390 5391 5391 5391 5391 5392 5394 5395 5396 5398 5399 5401 5402 5403 5405 5406 5407 5408 5409 5410 5411 5411 5412 5412 5413 5413 5413 5414 5414 5414 5414 5414 5414 5414
5379 5378 5378 5377 5377 5377 5377 5377 5377 5377 5377 5377 5377 5378 5378 5380 5382 5383 5384 5385 5387 5388 5389 5390 5391 5392 5393 5393 5394 5395 5395 5396 5396 5396 5397 5398 5398 5398 5399 5399 5399 5399 5399
5366 5365 5365 5364 5364 5364 5364 5364 5364 5364 5365 5365 5365 5365 5365 5367 5368 5370 5370 5371 5372 5373 5374 5375 5376 5376 5377 5377 5378 5378 5379 5380 5380 5381 5381 5382 5382 5382 5383 5383 5383 5383 5384
5353 5353 5352 5352 5352 5351 5351 5351 5351 5352 5352 5352 5352 5353 5353 5354 5356 5357 5357 5358 5359 5359 5360 5361 5361 5361 5361 5362 5362 5362 5363 5364 5364 5365 5366 5366 5366 5367 5367 5368 5368 5368 5369
5341 5341 5340 5340 5339 5339 5339 5339 5339 5339 5339 5340 5340 5341 5341 5342 5342 5343 5344 5344 5345 5345 5346 5346 5346 5347 5346 5346 5347 5347 5347 5348 5349 5349 5350 5350 5351 5352 5352 5353 5353 5354 5354
5329 5328 5328 5327 5327 5326 5326 5326 5326 5326 5327 5327 5327 5328 5328 5329 5329 5330 5330 5331 5331 5331 5331 5332 5332 5332 5332 5332 5332 5332 5333 5334 5334 5334 5335 5336 5336 5337 5338 5338 5339 5340 5340
5317 5316 5316 5315 5314 5314 5314 5314 5314 5314 5314 5315 5315 5315 5315 5316 5316 5317 5317 5317 5317 5318 5318 5318 5318 5318 5318 5318 5318 5319 5319 5320 5320 5320 5321 5322 5323 5323 5324 5325 5325 5326 5326
5304 5304 5303 5303 5302 5302 5302 5302 5302 5302 5302 5302 5302 5302 5303 5303 5303 5304 5304 5304 5304 5304 5304 5304 5304 5305 5305 5305 5305 5306 5306 5306 5307 5307 5308 5309 5310 5310 5311 5311 5312 5312 5313
5292 5292 5291 5291 5290 5290 5290 5290 5290 5290 5290 5290 5289 5289 5290 5290 5290 5290 5291 5291 5291 5291 5291 5291 5292 5292 5292 5293 5293 5293 5294 5294 5294 5295 5295 5296 5297 5298 5298 5298 5299 5299 5300